Location: Moscow
(38.8570°N, 84.2291°W)
Time: 18:23:28
(UTC+00:00)

NANOSAT C BR1 - Visible Passes

Search period start: 07 March 2026 00:00
Search period end: 17 March 2026 00:00
Orbit: 479 x 485 km, 98.1° (Epoch: 7 March)

Date Brightness Start Highest point End Pass type
(mag) Time Alt. Az. Time Alt. Az. Time Alt. Az.
7 Mar ? 00:59:02 10° SW 01:01:33 18° W 01:04:04 10° NW visible
8 Mar ? 00:32:51 10° S 00:36:12 38° W 00:39:35 10° NNW visible
9 Mar ? 00:07:21 10° SSE 00:10:56 90° NW 00:14:31 10° NNW visible
10 Mar ? 01:18:04 10° WSW 01:19:10 11° W 01:20:15 10° WNW visible
11 Mar ? 00:50:45 10° SSW 00:53:39 23° W 00:56:35 10° NW visible
12 Mar ? 00:24:43 10° S 00:28:12 52° W 00:31:43 10° NNW visible
14 Mar ? 01:08:42 10° SW 01:10:48 15° W 01:12:55 10° WNW visible
15 Mar ? 00:41:58 10° SSW 00:45:11 31° W 00:48:24 10° NW visible
16 Mar ? 00:16:04 10° S 00:19:37 74° WSW 00:23:11 10° NNW visible
